When you browse on this site, cookies collect data to enhance your experience and personalize the content and advertising you see.
Visit our Privacy Policy to learn more. By continuing to use the site, you agree to this use of cookies and data.
  • In Hungary
  • List of Countries
  • For 7 days
  • Water Temperature
  • Weather Map
  • News
  • Weather Widgets
  • user-avatar
    Login

    Hourly Weather Seveso

    Today, 18 November, Monday

    Time Temperature Precipitation Wind Pressure Humidity
    00:00 +7°C° 0.5 mm 1 mps 735 mmHg 86%
    01:00 +6°C° 0 mm 0 mps 735 mmHg 89%
    02:00 +6°C° 0.1 mm 0 mps 735 mmHg 88%
    03:00 +7°C° 0.1 mm 1 mps 735 mmHg 88%
    04:00 +7°C° 0.1 mm 1 mps 735 mmHg 87%
    05:00 +6°C° 0 mm 1 mps 736 mmHg 87%
    06:00 +6°C° 0 mm 1 mps 737 mmHg 86%
    07:00 +6°C° 0 mm 1 mps 738 mmHg 85%
    08:00 +7°C° 0 mm 1 mps 738 mmHg 83%
    09:00 +8°C° 0 mm 1 mps 739 mmHg 81%
    10:00 +8°C° 0 mm 1 mps 739 mmHg 79%
    11:00 +9°C° 0.1 mm 1 mps 739 mmHg 77%
    12:00 +9°C° 0.1 mm 1 mps 739 mmHg 75%
    13:00 +10°C° 0.1 mm 1 mps 739 mmHg 73%
    14:00 +10°C° 0 mm 1 mps 739 mmHg 74%
    15:00 +10°C° 0 mm 1 mps 739 mmHg 74%
    16:00 +9°C° 0 mm 1 mps 740 mmHg 75%
    17:00 +9°C° 0.2 mm 1 mps 740 mmHg 77%
    18:00 +9°C° 0.2 mm 1 mps 740 mmHg 79%
    19:00 +9°C° 0.2 mm 1 mps 741 mmHg 81%
    20:00 +8°C° 0.7 mm 1 mps 741 mmHg 82%
    21:00 +7°C° 0.7 mm 2 mps 741 mmHg 82%
    22:00 +7°C° 0.7 mm 2 mps 741 mmHg 82%
    23:00 +7°C° 0.7 mm 2 mps 741 mmHg 82%

    Tomorrow, 19 November, Tuesday

    Time Temperature Precipitation Wind Pressure Humidity
    00:00 +7°C° 0.7 mm 2 mps 741 mmHg 82%
    01:00 +7°C° 0.7 mm 2 mps 741 mmHg 82%
    02:00 +7°C° 1.2 mm 3 mps 740 mmHg 82%
    03:00 +7°C° 1.2 mm 3 mps 740 mmHg 83%
    04:00 +7°C° 1.2 mm 3 mps 740 mmHg 84%
    05:00 +7°C° 0.8 mm 3 mps 740 mmHg 84%
    06:00 +8°C° 0.8 mm 3 mps 740 mmHg 83%
    07:00 +8°C° 0.8 mm 3 mps 740 mmHg 83%
    08:00 +8°C° 2.1 mm 2 mps 740 mmHg 85%
    09:00 +8°C° 2.1 mm 2 mps 739 mmHg 87%
    10:00 +8°C° 2.1 mm 2 mps 739 mmHg 89%
    11:00 +8°C° 1.4 mm 2 mps 739 mmHg 88%
    12:00 +8°C° 1.4 mm 2 mps 739 mmHg 87%
    13:00 +8°C° 1.4 mm 2 mps 739 mmHg 85%
    14:00 +8°C° 2.3 mm 2 mps 739 mmHg 86%
    15:00 +8°C° 2.3 mm 2 mps 739 mmHg 87%
    16:00 +8°C° 2.3 mm 2 mps 739 mmHg 89%
    17:00 +8°C° 1.8 mm 2 mps 739 mmHg 89%
    18:00 +8°C° 1.8 mm 2 mps 740 mmHg 89%
    19:00 +8°C° 1.8 mm 2 mps 740 mmHg 89%
    20:00 +8°C° 1.4 mm 2 mps 740 mmHg 89%
    21:00 +8°C° 1.4 mm 2 mps 740 mmHg 89%
    22:00 +10°C° 1.4 mm 1 mps 741 mmHg 89%
    23:00 +10°C° 1 mm 1 mps 740 mmHg 90%

    Day after tomorrow, 20 November, Wednesday

    Time Temperature Precipitation Wind Pressure Humidity
    00:00 +10°C° 1 mm 1 mps 740 mmHg 90%
    01:00 +10°C° 1 mm 1 mps 740 mmHg 90%
    02:00 +10°C° 0.6 mm 1 mps 740 mmHg 89%
    03:00 +10°C° 0.6 mm 1 mps 740 mmHg 89%
    04:00 +10°C° 0.6 mm 1 mps 740 mmHg 88%
    05:00 +10°C° 0.3 mm 1 mps 740 mmHg 88%
    06:00 +10°C° 0.3 mm 1 mps 740 mmHg 88%
    07:00 +10°C° 0.3 mm 1 mps 740 mmHg 88%
    08:00 +10°C° 0.1 mm 1 mps 740 mmHg 86%
    09:00 +11°C° 0.1 mm 1 mps 740 mmHg 85%
    10:00 +11°C° 0.1 mm 1 mps 740 mmHg 84%
    11:00 +11°C° 0.1 mm 1 mps 740 mmHg 82%
    12:00 +12°C° 0.1 mm 1 mps 740 mmHg 80%
    13:00 +12°C° 0.1 mm 1 mps 739 mmHg 79%
    14:00 +12°C° 0.1 mm 1 mps 739 mmHg 80%
    15:00 +12°C° 0.1 mm 1 mps 739 mmHg 82%
    16:00 +11°C° 0.1 mm 1 mps 739 mmHg 84%
    17:00 +11°C° 0 mm 1 mps 739 mmHg 85%
    18:00 +11°C° 0 mm 1 mps 740 mmHg 87%
    19:00 +10°C° 0 mm 1 mps 740 mmHg 89%
    20:00 +10°C° 0 mm 1 mps 740 mmHg 90%
    21:00 +10°C° 0 mm 1 mps 740 mmHg 90%
    22:00 +9°C° 0 mm 1 mps 740 mmHg 91%
    23:00 +9°C° 0 mm 1 mps 740 mmHg 90%

    21 November, Thursday

    Time Temperature Precipitation Wind Pressure Humidity
    00:00 +8°C° 0 mm 0 mps 740 mmHg 89%
    01:00 +8°C° 0 mm 0 mps 740 mmHg 89%
    02:00 +8°C° 0.1 mm 0 mps 740 mmHg 90%
    03:00 +8°C° 0.1 mm 0 mps 740 mmHg 91%
    04:00 +8°C° 0.1 mm 0 mps 740 mmHg 92%
    05:00 +8°C° 0.1 mm 0 mps 740 mmHg 92%
    06:00 +8°C° 0.1 mm 0 mps 740 mmHg 92%
    07:00 +8°C° 0.1 mm 0 mps 740 mmHg 93%
    08:00 +8°C° 0 mm 0 mps 740 mmHg 90%
    09:00 +9°C° 0 mm 0 mps 740 mmHg 88%
    10:00 +9°C° 0 mm 0 mps 741 mmHg 85%
    11:00 +9°C° 0.3 mm 0 mps 740 mmHg 87%
    12:00 +10°C° 0.3 mm 1 mps 740 mmHg 89%
    13:00 +10°C° 0.3 mm 1 mps 740 mmHg 91%
    14:00 +10°C° 0.4 mm 1 mps 740 mmHg 90%
    15:00 +9°C° 0.4 mm 0 mps 740 mmHg 90%
    16:00 +9°C° 0.4 mm 0 mps 740 mmHg 90%
    17:00 +9°C° 0.1 mm 0 mps 741 mmHg 89%
    18:00 +8°C° 0.1 mm 0 mps 741 mmHg 89%
    19:00 +8°C° 0.1 mm 0 mps 742 mmHg 88%
    20:00 +8°C° 0.1 mm 0 mps 742 mmHg 88%
    21:00 +8°C° 0.1 mm 0 mps 742 mmHg 87%
    22:00 +8°C° 0.1 mm 0 mps 742 mmHg 87%
    23:00 +8°C° 0 mm 0 mps 742 mmHg 87%

    22 November, Friday

    Time Temperature Precipitation Wind Pressure Humidity
    00:00 +8°C° 0 mm 0 mps 742 mmHg 87%
    01:00 +9°C° 0 mm 1 mps 742 mmHg 87%
    02:00 +8°C° 0 mm 1 mps 742 mmHg 87%
    03:00 +8°C° 0 mm 1 mps 742 mmHg 87%
    04:00 +8°C° 0 mm 1 mps 742 mmHg 87%
    05:00 +8°C° 0 mm 1 mps 742 mmHg 85%
    06:00 +8°C° 0 mm 1 mps 742 mmHg 84%
    07:00 +8°C° 0 mm 1 mps 742 mmHg 83%
    08:00 +9°C° 0 mm 1 mps 742 mmHg 80%
    09:00 +8°C° 0 mm 0 mps 742 mmHg 77%
    10:00 +9°C° 0 mm 0 mps 742 mmHg 74%
    11:00 +9°C° 0 mm 0 mps 741 mmHg 73%
    12:00 +10°C° 0 mm 0 mps 741 mmHg 72%
    13:00 +10°C° 0 mm 0 mps 740 mmHg 72%
    14:00 +10°C° 0.4 mm 0 mps 740 mmHg 76%
    15:00 +9°C° 0.4 mm 0 mps 740 mmHg 80%
    16:00 +9°C° 0.4 mm 0 mps 740 mmHg 84%
    17:00 +10°C° 0.4 mm 1 mps 740 mmHg 85%
    18:00 +10°C° 0.4 mm 1 mps 740 mmHg 86%
    19:00 +10°C° 0.4 mm 1 mps 740 mmHg 86%
    20:00 +10°C° 0.1 mm 1 mps 740 mmHg 86%
    21:00 +10°C° 0.1 mm 1 mps 740 mmHg 86%
    22:00 +10°C° 0.1 mm 1 mps 740 mmHg 87%
    23:00 +10°C° 0.2 mm 1 mps 739 mmHg 87%

    23 November, Saturday

    Time Temperature Precipitation Wind Pressure Humidity
    00:00 +10°C° 0.2 mm 1 mps 739 mmHg 88%
    01:00 +10°C° 0.2 mm 1 mps 739 mmHg 88%
    02:00 +10°C° 0.3 mm 1 mps 738 mmHg 88%
    03:00 +9°C° 0.3 mm 2 mps 737 mmHg 88%
    04:00 +9°C° 0.3 mm 2 mps 737 mmHg 88%
    05:00 +9°C° 0.8 mm 2 mps 736 mmHg 88%
    06:00 +9°C° 0.8 mm 2 mps 736 mmHg 88%
    07:00 +9°C° 0.8 mm 2 mps 735 mmHg 88%
    08:00 +9°C° 2 mm 3 mps 735 mmHg 88%
    09:00 +9°C° 2 mm 3 mps 735 mmHg 88%
    10:00 +8°C° 2 mm 4 mps 734 mmHg 88%
    11:00 +9°C° 2.1 mm 3 mps 734 mmHg 88%
    12:00 +9°C° 2.1 mm 3 mps 733 mmHg 87%
    13:00 +8°C° 2.1 mm 3 mps 733 mmHg 87%
    14:00 +8°C° 1.7 mm 3 mps 732 mmHg 87%
    15:00 +8°C° 1.7 mm 2 mps 732 mmHg 88%
    16:00 +8°C° 1.7 mm 2 mps 732 mmHg 89%
    17:00 +8°C° 1.3 mm 2 mps 732 mmHg 89%
    18:00 +9°C° 1.3 mm 1 mps 732 mmHg 88%
    19:00 +9°C° 1.3 mm 1 mps 732 mmHg 88%
    20:00 +9°C° 0.7 mm 1 mps 733 mmHg 88%
    21:00 +9°C° 0.7 mm 1 mps 733 mmHg 87%
    22:00 +8°C° 0.7 mm 2 mps 733 mmHg 86%
    23:00 +8°C° 0.4 mm 2 mps 734 mmHg 85%
    Show more